User: anonymous   Login
Location: Newark
(36.0797°N, 3.9744°E)
Time: 08:20:00
(UTC+00:00)
Language:

Transit 2A Rocket - Orbit

View from above orbital plane
View from above orbital plane
View from above satellite
View from above satellite

Ground track
Ground track

The orbit data is extracted from the following two-line orbital elements,

1    47U 60007C   19348.90142513 -.00000027 +00000-0 +18971-4 0  9994
2    47 066.6664 291.1401 0220434 078.6545 283.9235 14.42062885107926
Epoch (UTC): 14 December 2019 21:38:03
Eccentricity: 0.0220434
inclination: 66.6664°
perigee height: 594 km
apogee height: 909 km
right ascension of ascending node: 291.1401°
argument of perigee: 78.6545°
revolutions per day: 14.42062885
mean anomaly at epoch: 283.9235°
orbit number at epoch: 10792

The dashed part of the orbit path shows where the satellite is in the earth's shadow,  

DLR